Regional Weather Roundup
Issued by NWS

Current Version | Previous Version | Text Only | Print | Product List | Glossary On
Versions: 1 2 3 4 5 6 7 8 9 10 11 12 13 14 15 16 17 18 19 20 21 22 23 24 25 26 27
000
ASUS42 KTBW 290417
RWRFL
FLORIDA REGIONAL WEATHER ROUNDUP
NATIONAL WEATHER SERVICE TAMPA BAY RUSKIN FL
1200 AM EDT MON AUG 29 2016

NOTE: "FAIR" INDICATES FEW OR NO CLOUDS BELOW 12,000 FEET WITH NO
SIGNIFICANT WEATHER AND/OR OBSTRUCTIONS TO VISIBILITY.

FLZ001>010-012>015-112-114-115-290500-
PANHANDLE FLORIDA

CITY           SKY/WX    TMP DP  RH WIND       PRES   REMARKS
PENSACOLA      MOCLDY    81  76  84 CALM      30.00S
PENSACOLA NAS  PTCLDY    79  76  90 CALM      29.99S
MILTON NAS     CLEAR     75  75 100 CALM      30.01
CRESTVIEW      PTCLDY    77  74  90 CALM      30.02F
DUKE FIELD     MOCLDY    78  74  88 NW3       29.99F
VALPARAISO     PTCLDY    78  75  90 CALM      29.99S
TRI COUNTY     FAIR      77  75  93 CALM      30.01S
PANAMA CITY    FAIR      77  75  93 NW3       29.99S
TYNDALL AFB    MOCLDY    79  77  94 N5G14     29.99R
APALACHICOLA   CLOUDY    80  78  94 NE5       29.98S

STATION/POSITION SKY/WX   TEMP    WIND        PRES    WAVE   SWELL
                          AIR SEA DIR/SP/G            HT/PER HT/PER
                          (F)     (DEG/KT/KT) (MB)    (FT/S) (FT/S)
30.1N   87.6W              84 86   80/ 12/ 14 1015.2S   3/ 6   2/ 6
29.2N   88.2W              83 85   60/ 12/ 16 1014.5R
28.8N   86.0W              85 85   80/ 12/ 14 1014.2F   3/ 6   2/ 6
PANAMA CITY BEAC           80 87   20/  4/  5 1015.9F
TOWER C                    85      60/ 14/ 16 1015.3F
28.5N   84.5W              81 86  150/ 19/ 25 1013.8F   3/ 5

$$
FLZ011-016>038-118-127-128-134-139-239-290500-
NORTH FLORIDA

CITY           SKY/WX    TMP DP  RH WIND       PRES   REMARKS
MARIANNA       CLOUDY    79  72  79 CALM      30.00S
TALLAHASSEE    PTCLDY    83  73  72 E9        30.01R
PERRY          CLEAR     79  72  78 NE3       30.02S
CROSS CITY     CLEAR     77  72  83 NE3       30.00S
LAKE CITY      FAIR      77  75  94 NE5       30.02F
GAINESVILLE    CLEAR     78  73  84 E5        30.01S
MAYPORT NAS    CLEAR     82  76  81 NE15      30.02F
JACKSONVILLE   PTCLDY    80  76  87 NE6       30.02S
JAX NAS        PTCLDY    84  75  74 NE9       30.02F
FERNANDINA BEA FAIR      86  75  70 E10       30.02S HX  95
ST AUGUSTINE   CLEAR     83  76  79 E14       30.02F

STATION/POSITION SKY/WX   TEMP    WIND        PRES    WAVE   SWELL
                          AIR SEA DIR/SP/G            HT/PER HT/PER
                          (F)     (DEG/KT/KT) (MB)    (FT/S) (FT/S)
SHELL POINT                83      70/  5/ 10 1014.5
KEATON BEACH               79      70/  7/  9 1015.5F
CEDAR KEY                  82      70/ 13/ 14 1015.7R
FERNANDINA                 83 86   50/  4/ 10 1017.1F
30.7N   81.3W                 85                N/A     3/ 5
MAYPORT                    83 85   70/ 13/ 16 1017.2F
31.4N   80.9W              83 85   70/ 12/ 16 1017.2F   3/ 7   2/ 7
ST AUGUSTINE               83 84   70/ 12/ 13 1016.9F

$$
FLZ040-043>046-052-053-057-058-063-144-290500-
INTERIOR CENTRAL FLORIDA

CITY           SKY/WX    TMP DP  RH WIND       PRES   REMARKS
OCALA          CLEAR     79  72  78 NE6       30.00F
THE VILLAGES     N/A     79  77  94 CALM      29.89F
LEESBURG       PTCLDY    80  76  87 NE7       29.99S
SANFORD        PTCLDY    78  74  87 E7        29.98F
ORLANDO EXEC   CLEAR     79  76  90 NE6       29.98F
ORLANDO INTL   CLEAR     79  76  90 NE8       29.98F
KISSIMMEE      CLEAR     80  76  87 E7        29.98S
WINTER HAVEN   CLEAR     80  75  84 NE3       29.98S
LAKELAND       CLEAR     79  75  89 E6        29.97S
BARTOW         FAIR      77  77 100 NE6       29.97F
OKEECHOBEE     CLEAR     77  75  94 CALM      29.96S

$$
FLZ041-047-054-059-064-141-147-290500-
EAST CENTRAL FLORIDA

CITY           SKY/WX    TMP DP  RH WIND       PRES   REMARKS
DAYTONA BEACH  PTCLDY    81  75  82 E7        29.99F
DELAND         PTCLDY    77  77 100 NE5       29.98F
JFK SPACE CTR  DRIZZLE   79  75  89 E6        29.97F FOG
CAPE CANAVERAL CLEAR     81  74  79 E8        29.96F
PATRICK AFB    PTCLDY    82  76  83 E10       29.96F
MELBOURNE      PTCLDY    83  77  82 E9        29.96F
VERO BEACH     CLEAR     80  73  79 SE6       29.96F
FT PIERCE      CLEAR     78  75  90 E6        29.95F
STUART         PTCLDY    82  77  83 SE6       29.95F

STATION/POSITION SKY/WX   TEMP    WIND        PRES    WAVE   SWELL
                          AIR SEA DIR/SP/G            HT/PER HT/PER
                          (F)     (DEG/KT/KT) (MB)    (FT/S) (FT/S)
28.5N   80.2W              82 83  130/ 10/ 12 1015.8R
TRIDENT PIER               81 85  120/  7/ 12 1015.5R
28.4N   80.5W                 85                N/A     3/ 5
27.5N   80.2W                 84                N/A     3/ 8

$$
FLZ050-056-061-142-242-148-248-149-249-151-251-155-255-
160-260-290500-
WEST CENTRAL FLORIDA

CITY           SKY/WX    TMP DP  RH WIND       PRES   REMARKS
CRYSTAL RIVER  FAIR      79  75  89 E7        29.98F
INVERNESS      FAIR      79  77  94 NE5       29.99S
BROOKSVILLE    CLEAR     79  75  87 E7        29.98S
CLEARWATER AIR FAIR      79  75  89 E5        29.95F
ST PETE CLEARW CLEAR     82  76  81 E10       29.95F
TAMPA INTL     CLEAR     82  75  79 E6        29.96F
TAMPA EXEC     CLEAR     79  77  94 CALM      29.96F
PLANT CITY     CLEAR     81  77  89 CALM      29.99S
MACDILL AFB    CLEAR     80  79  97 E9        29.95F
PETER O KNIGHT CLEAR     82  79  89 NE6       29.96S
ST PETERSBURG  CLEAR     83  77  82 E20       29.94F
SARASOTA       CLEAR     81  73  76 E8        29.93S
VENICE         FAIR      81  75  83 E8        29.93F

STATION/POSITION SKY/WX   TEMP    WIND        PRES    WAVE   SWELL
                          AIR SEA DIR/SP/G            HT/PER HT/PER
                          (F)     (DEG/KT/KT) (MB)    (FT/S) (FT/S)
27.3N   84.2W                 86                N/A     3/ 5
CLEARWATER BEACH           82 87   70/  6/  8 1014.7R
MIDDLE TAMPA BAY                   90/ 10/ 11 1014.7R
VENICE                     80 84   70/  9/ 11 1013.2S

$$
FLZ066-069-070-075>078-162-262-165-265-290500-
SOUTHWEST FLORIDA AND KEYS

CITY           SKY/WX    TMP DP  RH WIND       PRES   REMARKS
PUNTA GORDA    PTCLDY    77  74  90 NE8       29.94S
FT MYERS       CLEAR     80  75  84 E8        29.91S
SOUTHWEST INTL CLEAR     80  74  81 E9        29.91F
NAPLES         CLEAR     80  75  84 E9        29.91R
MARATHON       LGT RAIN  80  76  87 SE13G21   29.89S
KEY WEST NAS   MOCLDY     2  32 100 MISG      29.86S
KEY WEST INTL  LGT RAIN  82  78  88 SE24G32   29.86S

STATION/POSITION SKY/WX   TEMP    WIND        PRES    WAVE   SWELL
                          AIR SEA DIR/SP/G            HT/PER HT/PER
                          (F)     (DEG/KT/KT) (MB)    (FT/S) (FT/S)
NAPLES                        86              1012.7R
26.0N   85.6W              84 86   50/ 12/ 16 1012.0F   3/ 6   2/12
DRY TORTUGAS               83     100/ 22/ 24 1010.2R
SAND KEY                   80     160/ 24/ 27 1011.3R
LONG KEY                   79 86  160/ 17/ 20 1012.7R

$$
FLZ067-068-071>074-168-172>174-290500-
SOUTHEAST FLORIDA

CITY           SKY/WX    TMP DP  RH WIND       PRES   REMARKS
W PALM BEACH   PTCLDY    81  77  88 E7        29.95F
FT LAUDER-EXEC PTCLDY    81  76  84 E8        29.92F
FT LAUDERDALE  MOCLDY    83  75  77 SE12      29.92F
POMPANO BEACH  LGT RAIN  81  76  84 SE13      29.93F
OPA LOCKA      CLEAR     81  75  82 SE8       29.93S
MIAMI          MOCLDY    83  75  77 SE8       29.92F
WEST KENDALL   PTCLDY    78  73  84 SE6       29.92S
HOMESTEAD      MOCLDY    76  74  92 E5        29.91F

STATION/POSITION SKY/WX   TEMP    WIND        PRES    WAVE   SWELL
                          AIR SEA DIR/SP/G            HT/PER HT/PER
                          (F)     (DEG/KT/KT) (MB)    (FT/S) (FT/S)
PORT EVERGLADES            84     100/  4/  9 1013.6S
VIRGINIA KEY               84 89  110/ 11/ 15 1014.0R
LAKE WORTH                 81 86   60/ 10/ 12 1013.9S
FOWEY ROCKS                81 85  160/ 10/ 11 1013.8S
SETTLEMENT POINT           82     110/ 10/ 12 1015.1F

$$





USA.gov is the U.S. government's official web portal to all federal, state and local government web resources and services.